When you browse on this site, cookies collect data to enhance your experience and personalize the content and advertising you see.
Visit our Privacy Policy to learn more. By continuing to use the site, you agree to this use of cookies and data.
  • în România
  • Lista ţărilor
  • Pe 7 zile
  • Temperatura apei
  • Hartă satelitară
  • Meteo pe hartă
  • Widget-uri
  • user-avatar
    Intrare

    Meteo pe oră la Żnin

    Astăzi, 10 Decembrie, Luni

    Timp Temperatura Precipitaţii Vânt Presiune Umiditate
    00:00 +4°C° 0.4 mm 6 m/s 739 mmHg 85%
    01:00 +5°C° 0 mm 5 m/s 739 mmHg 84%
    02:00 +4°C° 0.2 mm 6 m/s 740 mmHg 82%
    03:00 +3°C° 0.2 mm 7 m/s 740 mmHg 79%
    04:00 +2°C° 0.2 mm 8 m/s 741 mmHg 77%
    05:00 +2°C° 0.1 mm 8 m/s 742 mmHg 76%
    06:00 +3°C° 0.1 mm 7 m/s 742 mmHg 75%
    07:00 +2°C° 0 mm 7 m/s 743 mmHg 74%
    08:00 +2°C° 0 mm 7 m/s 744 mmHg 74%
    09:00 +2°C° 0 mm 7 m/s 745 mmHg 74%
    10:00 +2°C° 0 mm 7 m/s 745 mmHg 73%
    11:00 +1°C° 0.1 mm 8 m/s 745 mmHg 72%
    12:00 +2°C° 0.1 mm 8 m/s 746 mmHg 70%
    13:00 +2°C° 0.1 mm 8 m/s 746 mmHg 68%
    14:00 +3°C° 0.1 mm 7 m/s 746 mmHg 70%
    15:00 +2°C° 0.1 mm 6 m/s 746 mmHg 71%
    16:00 +2°C° 0.1 mm 6 m/s 746 mmHg 72%
    17:00 +2°C° 0 mm 5 m/s 747 mmHg 74%
    18:00 +1°C° 0 mm 5 m/s 747 mmHg 75%
    19:00 +1°C° 0 mm 5 m/s 747 mmHg 77%
    20:00 +1°C° 0 mm 5 m/s 747 mmHg 79%
    21:00 0°C° 0 mm 5 m/s 747 mmHg 80%
    22:00 0°C° 0 mm 5 m/s 747 mmHg 82%
    23:00 0°C° 0 mm 5 m/s 747 mmHg 83%

    Mâine, 11 Decembrie, Marţi

    Timp Temperatura Precipitaţii Vânt Presiune Umiditate
    00:00 0°C° 0 mm 5 m/s 747 mmHg 85%
    01:00 0°C° 0 mm 4 m/s 747 mmHg 86%
    02:00 0°C° 0.3 mm 4 m/s 747 mmHg 86%
    03:00 0°C° 0.3 mm 4 m/s 747 mmHg 85%
    04:00 0°C° 0.3 mm 4 m/s 746 mmHg 85%
    05:00 0°C° 0.3 mm 4 m/s 746 mmHg 86%
    06:00 0°C° 0.3 mm 4 m/s 747 mmHg 87%
    07:00 +1°C° 0.3 mm 3 m/s 747 mmHg 87%
    08:00 +1°C° 0.2 mm 3 m/s 747 mmHg 88%
    09:00 +2°C° 0.2 mm 3 m/s 747 mmHg 89%
    10:00 +3°C° 0.2 mm 2 m/s 748 mmHg 90%
    11:00 +3°C° 0.2 mm 2 m/s 748 mmHg 89%
    12:00 +3°C° 0.2 mm 2 m/s 748 mmHg 88%
    13:00 +2°C° 0.2 mm 3 m/s 749 mmHg 88%
    14:00 +3°C° 0.1 mm 2 m/s 749 mmHg 89%
    15:00 +3°C° 0.1 mm 2 m/s 750 mmHg 91%
    16:00 +2°C° 0.1 mm 2 m/s 750 mmHg 92%
    17:00 +1°C° 0 mm 3 m/s 751 mmHg 92%
    18:00 +1°C° 0 mm 3 m/s 751 mmHg 92%
    19:00 +1°C° 0 mm 3 m/s 752 mmHg 93%
    20:00 0°C° 0.1 mm 4 m/s 752 mmHg 92%
    21:00 -1°C° 0.1 mm 4 m/s 753 mmHg 92%
    22:00 -1°C° 0.1 mm 4 m/s 753 mmHg 92%
    23:00 -1°C° 0.2 mm 4 m/s 754 mmHg 92%

    Poimâine, 12 Decembrie, Miercuri

    Timp Temperatura Precipitaţii Vânt Presiune Umiditate
    00:00 -1°C° 0.2 mm 4 m/s 754 mmHg 93%
    01:00 -2°C° 0.2 mm 4 m/s 754 mmHg 93%
    02:00 -1°C° 0.1 mm 3 m/s 755 mmHg 93%
    03:00 -1°C° 0.1 mm 3 m/s 755 mmHg 93%
    04:00 -2°C° 0.1 mm 3 m/s 755 mmHg 93%
    05:00 -2°C° 0 mm 3 m/s 756 mmHg 92%
    06:00 -2°C° 0 mm 3 m/s 756 mmHg 92%
    07:00 -2°C° 0 mm 2 m/s 757 mmHg 92%
    08:00 -2°C° 0 mm 2 m/s 757 mmHg 90%
    09:00 -1°C° 0 mm 2 m/s 757 mmHg 88%
    10:00 -1°C° 0 mm 2 m/s 758 mmHg 85%
    11:00 +1°C° 0 mm 2 m/s 758 mmHg 83%
    12:00 +1°C° 0 mm 2 m/s 758 mmHg 81%
    13:00 +3°C° 0 mm 1 m/s 758 mmHg 79%
    14:00 +2°C° 0 mm 1 m/s 758 mmHg 82%
    15:00 +1°C° 0 mm 1 m/s 758 mmHg 85%
    16:00 +1°C° 0 mm 1 m/s 758 mmHg 88%
    17:00 0°C° 0 mm 1 m/s 758 mmHg 89%
    18:00 0°C° 0 mm 1 m/s 758 mmHg 90%
    19:00 0°C° 0 mm 1 m/s 759 mmHg 91%
    20:00 0°C° 0 mm 1 m/s 759 mmHg 92%
    21:00 -2°C° 0 mm 2 m/s 759 mmHg 93%
    22:00 -2°C° 0 mm 2 m/s 759 mmHg 93%
    23:00 -2°C° 0 mm 2 m/s 759 mmHg 93%

    13 Decembrie, Joi

    Timp Temperatura Precipitaţii Vânt Presiune Umiditate
    00:00 -2°C° 0 mm 2 m/s 759 mmHg 93%
    01:00 -2°C° 0 mm 2 m/s 759 mmHg 92%
    02:00 -2°C° 0 mm 2 m/s 759 mmHg 91%
    03:00 -1°C° 0 mm 2 m/s 758 mmHg 89%
    04:00 -1°C° 0 mm 2 m/s 758 mmHg 88%
    05:00 -1°C° 0 mm 2 m/s 758 mmHg 88%
    06:00 -1°C° 0 mm 2 m/s 758 mmHg 88%
    07:00 -1°C° 0 mm 2 m/s 758 mmHg 88%
    08:00 -1°C° 0 mm 3 m/s 757 mmHg 86%
    09:00 -1°C° 0 mm 3 m/s 757 mmHg 85%
    10:00 0°C° 0 mm 3 m/s 757 mmHg 83%
    11:00 0°C° 0 mm 3 m/s 757 mmHg 81%
    12:00 0°C° 0 mm 3 m/s 757 mmHg 78%
    13:00 0°C° 0 mm 3 m/s 757 mmHg 76%
    14:00 0°C° 0 mm 3 m/s 757 mmHg 78%
    15:00 -1°C° 0 mm 2 m/s 757 mmHg 80%
    16:00 -1°C° 0 mm 2 m/s 757 mmHg 82%
    17:00 -1°C° 0 mm 2 m/s 757 mmHg 83%
    18:00 -2°C° 0 mm 2 m/s 757 mmHg 85%
    19:00 -2°C° 0 mm 2 m/s 757 mmHg 86%
    20:00 -2°C° 0 mm 2 m/s 757 mmHg 87%
    21:00 -2°C° 0 mm 2 m/s 757 mmHg 88%
    22:00 -2°C° 0 mm 2 m/s 758 mmHg 88%
    23:00 -2°C° 0 mm 2 m/s 758 mmHg 89%

    14 Decembrie, Vineri

    Timp Temperatura Precipitaţii Vânt Presiune Umiditate
    00:00 -2°C° 0 mm 2 m/s 758 mmHg 90%
    01:00 -2°C° 0 mm 2 m/s 758 mmHg 90%
    02:00 -2°C° 0 mm 2 m/s 759 mmHg 91%
    03:00 -2°C° 0 mm 2 m/s 759 mmHg 93%
    04:00 -2°C° 0 mm 2 m/s 759 mmHg 94%
    05:00 -2°C° 0 mm 2 m/s 759 mmHg 94%
    06:00 -2°C° 0 mm 2 m/s 760 mmHg 94%
    07:00 -2°C° 0 mm 2 m/s 760 mmHg 95%
    08:00 -2°C° 0 mm 2 m/s 761 mmHg 93%
    09:00 -1°C° 0 mm 2 m/s 761 mmHg 91%
    10:00 -1°C° 0 mm 2 m/s 762 mmHg 90%
    11:00 +1°C° 0 mm 2 m/s 762 mmHg 89%
    12:00 +1°C° 0 mm 2 m/s 762 mmHg 88%
    13:00 +1°C° 0 mm 2 m/s 763 mmHg 87%
    14:00 +1°C° 0 mm 2 m/s 763 mmHg 88%
    15:00 -1°C° 0 mm 2 m/s 763 mmHg 90%
    16:00 -1°C° 0 mm 2 m/s 764 mmHg 91%
    17:00 -1°C° 0 mm 2 m/s 764 mmHg 91%
    18:00 -1°C° 0 mm 2 m/s 764 mmHg 91%
    19:00 +1°C° 0 mm 1 m/s 765 mmHg 91%
    20:00 +1°C° 0 mm 1 m/s 765 mmHg 91%
    21:00 +1°C° 0 mm 1 m/s 765 mmHg 91%
    22:00 +1°C° 0 mm 1 m/s 765 mmHg 91%
    23:00 +1°C° 0 mm 1 m/s 766 mmHg 91%

    15 Decembrie, Sâmbătă

    Timp Temperatura Precipitaţii Vânt Presiune Umiditate
    00:00 +1°C° 0 mm 1 m/s 766 mmHg 91%
    01:00 +1°C° 0 mm 1 m/s 766 mmHg 91%
    02:00 +1°C° 0 mm 1 m/s 766 mmHg 91%
    03:00 +1°C° 0 mm 1 m/s 766 mmHg 91%
    04:00 +1°C° 0 mm 1 m/s 767 mmHg 91%
    05:00 -1°C° 0 mm 2 m/s 767 mmHg 91%
    06:00 -1°C° 0 mm 2 m/s 767 mmHg 91%
    07:00 -1°C° 0 mm 2 m/s 767 mmHg 91%
    08:00 -1°C° 0 mm 2 m/s 768 mmHg 90%
    09:00 -1°C° 0 mm 2 m/s 768 mmHg 89%
    10:00 -1°C° 0 mm 3 m/s 768 mmHg 87%
    11:00 +1°C° 0 mm 2 m/s 768 mmHg 86%
    12:00 +1°C° 0 mm 2 m/s 768 mmHg 85%
    13:00 +1°C° 0 mm 2 m/s 768 mmHg 84%
    14:00 -1°C° 0 mm 2 m/s 768 mmHg 87%
    15:00 -1°C° 0 mm 3 m/s 768 mmHg 89%
    16:00 -2°C° 0 mm 3 m/s 768 mmHg 92%
    17:00 -2°C° 0 mm 3 m/s 768 mmHg 92%
    18:00 -2°C° 0 mm 3 m/s 768 mmHg 92%
    19:00 -4°C° 0 mm 3 m/s 768 mmHg 93%
    20:00 -4°C° 0 mm 3 m/s 768 mmHg 93%
    21:00 -4°C° 0 mm 3 m/s 768 mmHg 92%
    22:00 -4°C° 0 mm 3 m/s 768 mmHg 92%
    23:00 -4°C° 0 mm 3 m/s 768 mmHg 92%
    Arată mai mult